Time,TemperatureF,DewpointF,PressureIn,WindDirection,WindDirectionDegrees,WindSpeedMPH,WindSpeedGustMPH,Humidity,HourlyPrecipIn,Conditions,Clouds,dailyrainin,SoftwareType,DateUTC
2013-11-21 00:04:00,67.0,60.7,29.87,West,274,1.0,2.0,80,0.00,CLR,,0.00,WeatherDisplay:10.37,2013-11-20 13:04:00,
2013-11-21 00:09:00,67.1,60.7,29.87,WSW,254,0.0,1.0,80,0.00,CLR,,0.00,WeatherDisplay:10.37,2013-11-20 13:09:00,
2013-11-21 00:14:00,67.3,60.9,29.86,SE,126,0.0,0.0,80,0.00,CLR,,0.00,WeatherDisplay:10.37,2013-11-20 13:14:00,
2013-11-21 00:19:00,67.3,60.9,29.86,ESE,105,0.0,1.0,80,0.00,CLR,,0.00,WeatherDisplay:10.37,2013-11-20 13:19:00,
2013-11-21 00:24:00,67.3,60.5,29.86,East,92,0.0,1.0,79,0.00,CLR,,0.00,WeatherDisplay:10.37,2013-11-20 13:24:00,
2013-11-21 00:29:00,67.1,60.4,29.85,NE,42,0.0,0.0,79,0.00,CLR,,0.00,WeatherDisplay:10.37,2013-11-20 13:29:00,
2013-11-21 00:34:00,66.7,60.4,29.85,NNE,24,0.0,0.0,80,0.00,CLR,,0.00,WeatherDisplay:10.37,2013-11-20 13:34:00,
2013-11-21 00:39:00,66.6,60.2,29.85,NW,322,0.0,0.0,80,0.00,CLR,,0.00,WeatherDisplay:10.37,2013-11-20 13:39:00,
2013-11-21 00:44:00,66.0,59.7,29.85,West,266,0.0,1.0,80,0.00,CLR,,0.00,WeatherDisplay:10.37,2013-11-20 13:44:00,
2013-11-21 00:49:00,66.0,59.7,29.85,West,274,0.0,1.0,80,0.00,CLR,,0.00,WeatherDisplay:10.37,2013-11-20 13:49:00,
2013-11-21 00:54:00,66.0,60.0,29.85,West,277,0.0,1.0,81,0.00,CLR,,0.00,WeatherDisplay:10.37,2013-11-20 13:54:00,
2013-11-21 00:59:00,66.0,60.0,29.85,West,281,0.0,2.0,81,0.00,CLR,,0.00,WeatherDisplay:10.37,2013-11-20 13:59:00,
2013-11-21 01:04:00,66.0,60.0,29.85,West,274,0.0,0.0,81,0.00,CLR,,0.00,WeatherDisplay:10.37,2013-11-20 14:04:00,
2013-11-21 01:09:00,66.0,60.0,29.85,West,268,0.0,1.0,81,0.00,CLR,,0.00,WeatherDisplay:10.37,2013-11-20 14:09:00,
2013-11-21 01:14:00,65.9,59.9,29.85,WNW,285,0.0,3.0,81,0.00,CLR,,0.00,WeatherDisplay:10.37,2013-11-20 14:14:00,
2013-11-21 01:19:00,66.0,60.4,29.85,West,273,0.0,1.0,82,0.00,CLR,,0.00,WeatherDisplay:10.37,2013-11-20 14:19:00,
2013-11-21 01:24:00,66.0,60.0,29.85,ENE,58,1.0,2.0,81,0.00,CLR,,0.00,WeatherDisplay:10.37,2013-11-20 14:24:00,
2013-11-21 01:29:00,66.0,60.0,29.85,NNE,17,0.0,1.0,81,0.00,CLR,,0.00,WeatherDisplay:10.37,2013-11-20 14:29:00,
2013-11-21 01:34:00,65.8,59.5,29.85,WNW,289,0.0,2.0,80,0.00,CLR,,0.00,WeatherDisplay:10.37,2013-11-20 14:34:00,
2013-11-21 01:39:00,66.0,60.0,29.85,NW,312,0.0,1.0,81,0.00,CLR,,0.00,WeatherDisplay:10.37,2013-11-20 14:39:00,
2013-11-21 01:44:00,65.5,59.5,29.85,NW,325,0.0,0.0,81,0.00,CLR,,0.00,WeatherDisplay:10.37,2013-11-20 14:44:00,
2013-11-21 01:49:00,65.6,59.6,29.84,WNW,286,0.0,0.0,81,0.00,CLR,,0.00,WeatherDisplay:10.37,2013-11-20 14:49:00,
2013-11-21 01:54:00,65.3,59.3,29.84,West,269,0.0,1.0,81,0.00,CLR,,0.00,WeatherDisplay:10.37,2013-11-20 14:54:00,
2013-11-21 01:59:00,65.5,59.5,29.84,WNW,299,0.0,0.0,81,0.00,CLR,,0.00,WeatherDisplay:10.37,2013-11-20 14:59:00,
2013-11-21 02:04:00,65.3,59.7,29.84,NNW,347,0.0,0.0,82,0.00,CLR,,0.00,WeatherDisplay:10.37,2013-11-20 15:04:00,
2013-11-21 02:09:00,65.1,59.2,29.83,NNE,25,0.0,0.0,81,0.00,CLR,,0.00,WeatherDisplay:10.37,2013-11-20 15:09:00,
2013-11-21 02:14:00,65.1,59.1,29.83,East,100,0.0,1.0,81,0.00,CLR,,0.00,WeatherDisplay:10.37,2013-11-20 15:14:00,
2013-11-21 02:19:00,64.9,59.0,29.83,WSW,239,0.0,0.0,81,0.00,CLR,,0.00,WeatherDisplay:10.37,2013-11-20 15:19:00,
2013-11-21 02:24:00,64.9,59.0,29.83,NW,307,1.0,2.0,81,0.00,CLR,,0.00,WeatherDisplay:10.37,2013-11-20 15:24:00,
2013-11-21 02:29:00,64.9,58.9,29.83,NNW,333,0.0,2.0,81,0.00,CLR,,0.00,WeatherDisplay:10.37,2013-11-20 15:29:00,
2013-11-21 02:34:00,64.8,58.8,29.83,North,3,1.0,2.0,81,0.00,CLR,,0.00,WeatherDisplay:10.37,2013-11-20 15:34:00,
2013-11-21 02:39:00,64.9,59.0,29.83,NNE,32,0.0,1.0,81,0.00,CLR,,0.00,WeatherDisplay:10.37,2013-11-20 15:39:00,
2013-11-21 02:44:00,64.8,58.8,29.83,NE,51,0.0,0.0,81,0.00,CLR,,0.00,WeatherDisplay:10.37,2013-11-20 15:44:00,
2013-11-21 02:49:00,64.6,58.6,29.82,NE,45,0.0,0.0,81,0.00,CLR,,0.00,WeatherDisplay:10.37,2013-11-20 15:49:00,
2013-11-21 02:54:00,64.6,58.6,29.82,North,4,0.0,0.0,81,0.00,CLR,,0.00,WeatherDisplay:10.37,2013-11-20 15:54:00,
2013-11-21 02:59:00,64.3,58.3,29.82,WNW,286,1.0,2.0,81,0.00,CLR,,0.00,WeatherDisplay:10.37,2013-11-20 15:59:00,
2013-11-21 03:04:00,63.9,58.0,29.83,WSW,258,1.0,2.0,81,0.00,CLR,,0.00,WeatherDisplay:10.37,2013-11-20 16:04:00,
2013-11-21 03:09:00,63.7,58.1,29.83,WSW,251,0.0,2.0,82,0.00,CLR,,0.00,WeatherDisplay:10.37,2013-11-20 16:09:00,
2013-11-21 03:14:00,64.0,58.4,29.83,SW,230,0.0,1.0,82,0.00,CLR,,0.00,WeatherDisplay:10.37,2013-11-20 16:14:00,
2013-11-21 03:19:00,64.0,58.4,29.83,East,99,0.0,0.0,82,0.00,CLR,,0.00,WeatherDisplay:10.37,2013-11-20 16:19:00,
2013-11-21 03:24:00,64.0,58.4,29.83,ESE,102,0.0,0.0,82,0.00,CLR,,0.00,WeatherDisplay:10.37,2013-11-20 16:24:00,
2013-11-21 03:29:00,64.0,58.4,29.83,NE,53,0.0,0.0,82,0.00,CLR,,0.00,WeatherDisplay:10.37,2013-11-20 16:29:00,
2013-11-21 03:34:00,63.9,58.3,29.83,North,355,0.0,1.0,82,0.00,CLR,,0.00,WeatherDisplay:10.37,2013-11-20 16:34:00,
2013-11-21 03:39:00,64.0,58.4,29.83,NNE,14,0.0,2.0,82,0.00,CLR,,0.00,WeatherDisplay:10.37,2013-11-20 16:39:00,
2013-11-21 03:44:00,64.0,58.4,29.82,ENE,77,0.0,1.0,82,0.00,CLR,,0.00,WeatherDisplay:10.37,2013-11-20 16:44:00,
2013-11-21 03:49:00,63.9,58.3,29.82,NE,47,0.0,1.0,82,0.00,CLR,,0.00,WeatherDisplay:10.37,2013-11-20 16:49:00,
2013-11-21 03:54:00,63.7,58.1,29.82,NW,326,0.0,0.0,82,0.00,CLR,,0.00,WeatherDisplay:10.37,2013-11-20 16:54:00,
2013-11-21 03:59:00,63.5,57.9,29.82,WNW,286,0.0,0.0,82,0.00,CLR,,0.00,WeatherDisplay:10.37,2013-11-20 16:59:00,
2013-11-21 04:04:00,63.3,57.7,29.82,West,281,0.0,0.0,82,0.00,CLR,,0.00,WeatherDisplay:10.37,2013-11-20 17:04:00,
2013-11-21 04:09:00,63.1,57.6,29.82,WNW,292,0.0,0.0,82,0.00,CLR,,0.00,WeatherDisplay:10.37,2013-11-20 17:09:00,
2013-11-21 04:14:00,63.0,57.4,29.82,West,281,0.0,0.0,82,0.00,CLR,,0.00,WeatherDisplay:10.37,2013-11-20 17:14:00,
2013-11-21 04:19:00,63.1,57.9,29.83,WNW,284,0.0,0.0,83,0.00,CLR,,0.00,WeatherDisplay:10.37,2013-11-20 17:19:00,
2013-11-21 04:24:00,63.3,58.1,29.82,NE,36,0.0,0.0,83,0.00,CLR,,0.00,WeatherDisplay:10.37,2013-11-20 17:24:00,
2013-11-21 04:29:00,63.4,57.9,29.82,NE,44,0.0,0.0,82,0.00,CLR,,0.00,WeatherDisplay:10.37,2013-11-20 17:29:00,
2013-11-21 04:34:00,63.3,57.7,29.82,North,349,0.0,0.0,82,0.00,CLR,,0.00,WeatherDisplay:10.37,2013-11-20 17:34:00,
2013-11-21 04:39:00,63.1,57.6,29.82,West,276,0.0,1.0,82,0.00,CLR,,0.00,WeatherDisplay:10.37,2013-11-20 17:39:00,
2013-11-21 04:44:00,62.9,57.3,29.82,WSW,238,0.0,1.0,82,0.00,CLR,,0.00,WeatherDisplay:10.37,2013-11-20 17:44:00,
2013-11-21 04:49:00,62.7,57.1,29.82,West,269,0.0,1.0,82,0.00,CLR,,0.00,WeatherDisplay:10.37,2013-11-20 17:49:00,
2013-11-21 04:54:00,62.4,57.2,29.82,West,272,0.0,1.0,83,0.00,CLR,,0.00,WeatherDisplay:10.37,2013-11-20 17:54:00,
2013-11-21 04:59:00,62.4,57.2,29.82,West,266,0.0,2.0,83,0.00,CLR,,0.00,WeatherDisplay:10.37,2013-11-20 17:59:00,
2013-11-21 05:04:00,62.4,57.2,29.82,WSW,245,0.0,0.0,83,0.00,CLR,,0.00,WeatherDisplay:10.37,2013-11-20 18:04:00,
2013-11-21 05:09:00,62.8,57.9,29.82,SSW,199,0.0,0.0,84,0.00,CLR,,0.00,WeatherDisplay:10.37,2013-11-20 18:09:00,
2013-11-21 05:14:00,62.8,57.5,29.82,South,184,0.0,0.0,83,0.00,CLR,,0.00,WeatherDisplay:10.37,2013-11-20 18:14:00,
2013-11-21 05:19:00,62.6,57.4,29.82,SW,224,0.0,0.0,83,0.00,CLR,,0.00,WeatherDisplay:10.37,2013-11-20 18:19:00,
2013-11-21 05:24:00,62.6,57.4,29.82,West,269,0.0,0.0,83,0.00,CLR,,0.00,WeatherDisplay:10.37,2013-11-20 18:24:00,
2013-11-21 05:29:00,62.4,57.2,29.83,WNW,282,0.0,0.0,83,0.00,CLR,,0.00,WeatherDisplay:10.37,2013-11-20 18:29:00,
2013-11-21 05:34:00,62.4,57.2,29.83,WSW,252,0.0,2.0,83,0.00,CLR,,0.00,WeatherDisplay:10.37,2013-11-20 18:34:00,
2013-11-21 05:39:00,62.4,57.2,29.83,WSW,245,0.0,1.0,83,0.00,CLR,,0.00,WeatherDisplay:10.37,2013-11-20 18:39:00,
2013-11-21 05:44:00,62.2,57.3,29.84,West,263,0.0,1.0,84,0.00,CLR,,0.00,WeatherDisplay:10.37,2013-11-20 18:44:00,
2013-11-21 05:49:00,62.2,57.3,29.84,West,271,0.0,2.0,84,0.00,CLR,,0.00,WeatherDisplay:10.37,2013-11-20 18:49:00,
2013-11-21 05:54:00,62.2,57.7,29.85,WNW,292,1.0,2.0,85,0.00,CLR,,0.00,WeatherDisplay:10.37,2013-11-20 18:54:00,
2013-11-21 05:59:00,62.4,57.8,29.84,WNW,292,0.0,2.0,85,0.00,CLR,,0.00,WeatherDisplay:10.37,2013-11-20 18:59:00,
2013-11-21 06:04:00,62.6,58.0,29.84,WNW,303,0.0,1.0,85,0.00,CLR,,0.00,WeatherDisplay:10.37,2013-11-20 19:04:00,
2013-11-21 06:09:00,62.8,58.2,29.84,East,81,0.0,1.0,85,0.00,CLR,,0.00,WeatherDisplay:10.37,2013-11-20 19:09:00,
2013-11-21 06:14:00,62.7,58.1,29.84,West,260,0.0,0.0,85,0.02,RA,,0.02,WeatherDisplay:10.37,2013-11-20 19:14:00,
2013-11-21 06:19:00,62.8,58.2,29.84,WSW,237,0.0,0.0,85,0.00,RA,,0.02,WeatherDisplay:10.37,2013-11-20 19:19:00,
2013-11-21 06:24:00,62.8,58.2,29.84,SW,216,0.0,0.0,85,0.00,CLR,,0.02,WeatherDisplay:10.37,2013-11-20 19:24:00,
2013-11-21 06:29:00,62.8,58.2,29.84,SW,221,0.0,0.0,85,0.00,CLR,,0.02,WeatherDisplay:10.37,2013-11-20 19:29:00,
2013-11-21 06:34:00,62.8,58.2,29.84,SSW,206,0.0,0.0,85,0.00,CLR,,0.02,WeatherDisplay:10.37,2013-11-20 19:34:00,
2013-11-21 06:39:00,62.8,58.6,29.84,SSW,212,0.0,0.0,86,0.00,CLR,,0.02,WeatherDisplay:10.37,2013-11-20 19:39:00,
2013-11-21 06:44:00,63.1,58.9,29.84,SSW,208,0.0,0.0,86,0.00,CLR,,0.02,WeatherDisplay:10.37,2013-11-20 19:44:00,
2013-11-21 06:49:00,63.3,59.1,29.84,SSW,213,0.0,0.0,86,0.00,CLR,,0.02,WeatherDisplay:10.37,2013-11-20 19:49:00,
2013-11-21 06:54:00,63.9,60.0,29.85,WNW,295,1.0,3.0,87,0.00,CLR,,0.02,WeatherDisplay:10.37,2013-11-20 19:54:00,
2013-11-21 06:59:00,64.2,60.3,29.85,NE,45,1.0,3.0,87,0.00,CLR,,0.02,WeatherDisplay:10.37,2013-11-20 19:59:00,
2013-11-21 07:04:00,64.6,60.9,29.86,NE,53,0.0,2.0,88,0.00,CLR,,0.02,WeatherDisplay:10.37,2013-11-20 20:04:00,
2013-11-21 07:09:00,64.8,61.1,29.86,NE,50,0.0,2.0,88,0.00,CLR,,0.02,WeatherDisplay:10.37,2013-11-20 20:09:00,
2013-11-21 07:14:00,65.0,61.4,29.86,East,99,0.0,2.0,88,0.00,CLR,,0.02,WeatherDisplay:10.37,2013-11-20 20:14:00,
2013-11-21 07:19:00,65.1,61.5,29.86,ENE,69,0.0,3.0,88,0.00,CLR,,0.02,WeatherDisplay:10.37,2013-11-20 20:19:00,
2013-11-21 07:24:00,65.5,61.8,29.86,NE,54,0.0,2.0,88,0.00,CLR,,0.02,WeatherDisplay:10.37,2013-11-20 20:24:00,
2013-11-21 07:29:00,65.8,62.1,29.86,ENE,71,1.0,4.0,88,0.00,CLR,,0.02,WeatherDisplay:10.37,2013-11-20 20:29:00,
2013-11-21 07:34:00,66.0,62.4,29.86,ENE,73,2.0,7.0,88,0.00,CLR,,0.02,WeatherDisplay:10.37,2013-11-20 20:34:00,
2013-11-21 07:39:00,66.4,62.7,29.87,ENE,67,3.0,7.0,88,0.00,CLR,,0.02,WeatherDisplay:10.37,2013-11-20 20:39:00,
2013-11-21 07:44:00,66.7,63.1,29.87,ENE,58,2.0,6.0,88,0.00,CLR,,0.02,WeatherDisplay:10.37,2013-11-20 20:44:00,
2013-11-21 07:49:00,66.9,62.9,29.87,ENE,73,2.0,6.0,87,0.00,CLR,,0.02,WeatherDisplay:10.37,2013-11-20 20:49:00,
2013-11-21 07:54:00,67.1,62.8,29.87,NE,55,1.0,5.0,86,0.00,CLR,,0.02,WeatherDisplay:10.37,2013-11-20 20:54:00,
2013-11-21 07:59:00,67.3,62.9,29.87,ENE,66,2.0,7.0,86,0.00,CLR,,0.02,WeatherDisplay:10.37,2013-11-20 20:59:00,
2013-11-21 08:04:00,67.6,63.3,29.88,ENE,77,1.0,4.0,86,0.00,CLR,,0.02,WeatherDisplay:10.37,2013-11-20 21:04:00,
2013-11-21 08:09:00,67.8,63.5,29.88,ENE,74,3.0,7.0,86,0.00,CLR,,0.02,WeatherDisplay:10.37,2013-11-20 21:09:00,
2013-11-21 08:14:00,67.8,63.1,29.87,East,88,3.0,6.0,85,0.00,CLR,,0.02,WeatherDisplay:10.37,2013-11-20 21:14:00,
2013-11-21 08:19:00,68.2,63.5,29.88,East,98,2.0,6.0,85,0.00,CLR,,0.02,WeatherDisplay:10.37,2013-11-20 21:19:00,
2013-11-21 08:24:00,68.7,64.0,29.88,ENE,71,3.0,6.0,85,0.00,CLR,,0.02,WeatherDisplay:10.37,2013-11-20 21:24:00,
2013-11-21 08:29:00,69.1,64.0,29.88,ENE,61,2.0,5.0,84,0.00,CLR,,0.02,WeatherDisplay:10.37,2013-11-20 21:29:00,
2013-11-21 08:34:00,69.1,63.8,29.88,ENE,66,1.0,7.0,83,0.00,CLR,,0.02,WeatherDisplay:10.37,2013-11-20 21:34:00,
2013-11-21 08:39:00,69.4,64.0,29.88,East,99,5.0,8.0,83,0.00,CLR,,0.02,WeatherDisplay:10.37,2013-11-20 21:39:00,
2013-11-21 08:44:00,69.9,64.2,29.88,ESE,111,2.0,9.0,82,0.00,CLR,,0.02,WeatherDisplay:10.37,2013-11-20 21:44:00,
2013-11-21 08:49:00,70.2,64.4,29.88,ESE,103,7.0,10.0,82,0.00,CLR,,0.02,WeatherDisplay:10.37,2013-11-20 21:49:00,
2013-11-21 08:54:00,70.3,63.9,29.88,East,93,6.0,9.0,80,0.00,CLR,,0.02,WeatherDisplay:10.37,2013-11-20 21:54:00,
2013-11-21 08:59:00,70.5,64.0,29.88,East,95,6.0,13.0,80,0.00,RA,,0.00,WeatherDisplay:10.37,2013-11-20 21:59:00,
2013-11-21 09:04:00,70.8,64.3,29.88,East,94,5.0,13.0,80,0.00,RA,,0.00,WeatherDisplay:10.37,2013-11-20 22:04:00,
2013-11-21 09:09:00,70.9,64.0,29.88,East,85,3.0,11.0,79,0.00,CLR,,0.00,WeatherDisplay:10.37,2013-11-20 22:09:00,
2013-11-21 09:14:00,71.4,64.2,29.88,ENE,61,5.0,9.0,78,0.00,CLR,,0.00,WeatherDisplay:10.37,2013-11-20 22:14:00,
2013-11-21 09:19:00,71.4,64.2,29.88,ENE,78,5.0,12.0,78,0.00,CLR,,0.00,WeatherDisplay:10.37,2013-11-20 22:19:00,
2013-11-21 09:24:00,71.8,64.2,29.87,ENE,76,3.0,9.0,77,0.00,CLR,,0.00,WeatherDisplay:10.37,2013-11-20 22:24:00,
2013-11-21 09:29:00,71.8,63.8,29.88,ENE,59,2.0,7.0,76,0.00,CLR,,0.00,WeatherDisplay:10.37,2013-11-20 22:29:00,
2013-11-21 09:34:00,71.8,63.8,29.88,ENE,77,6.0,10.0,76,0.00,CLR,,0.00,WeatherDisplay:10.37,2013-11-20 22:34:00,
2013-11-21 09:39:00,71.8,63.8,29.88,ENE,65,2.0,11.0,76,0.00,CLR,,0.00,WeatherDisplay:10.37,2013-11-20 22:39:00,
2013-11-21 09:44:00,72.0,64.1,29.87,ENE,58,3.0,8.0,76,0.00,CLR,,0.00,WeatherDisplay:10.37,2013-11-20 22:44:00,
2013-11-21 09:49:00,72.3,63.6,29.87,ENE,69,2.0,14.0,74,0.00,CLR,,0.00,WeatherDisplay:10.37,2013-11-20 22:49:00,
2013-11-21 09:54:00,72.3,63.9,29.87,ENE,74,8.0,13.0,75,0.00,CLR,,0.00,WeatherDisplay:10.37,2013-11-20 22:54:00,
2013-11-21 09:59:00,72.7,63.9,29.87,NE,51,2.0,6.0,74,0.00,CLR,,0.00,WeatherDisplay:10.37,2013-11-20 22:59:00,
2013-11-21 10:04:00,73.0,64.3,29.87,ENE,59,5.0,7.0,74,0.00,CLR,,0.00,WeatherDisplay:10.37,2013-11-20 23:04:00,
2013-11-21 10:09:00,73.0,64.3,29.86,East,88,9.0,13.0,74,0.00,CLR,,0.00,WeatherDisplay:10.37,2013-11-20 23:09:00,
2013-11-21 10:14:00,73.2,63.6,29.86,East,100,6.0,12.0,72,0.00,CLR,,0.00,WeatherDisplay:10.37,2013-11-20 23:14:00,
2013-11-21 10:19:00,73.2,63.6,29.86,East,100,5.0,12.0,72,0.00,CLR,,0.00,WeatherDisplay:10.37,2013-11-20 23:19:00,
2013-11-21 10:24:00,73.6,63.6,29.86,East,92,2.0,8.0,71,0.00,CLR,,0.00,WeatherDisplay:10.37,2013-11-20 23:24:00,
2013-11-21 10:29:00,73.9,64.3,29.86,East,81,2.0,6.0,72,0.00,CLR,,0.00,WeatherDisplay:10.37,2013-11-20 23:29:00,
2013-11-21 10:34:00,74.1,63.7,29.86,ESE,122,10.0,15.0,70,0.00,CLR,,0.00,WeatherDisplay:10.37,2013-11-20 23:34:00,
2013-11-21 10:39:00,74.3,63.9,29.87,East,98,2.0,7.0,70,0.00,CLR,,0.00,WeatherDisplay:10.37,2013-11-20 23:39:00,
2013-11-21 10:44:00,74.3,63.9,29.87,ENE,65,2.0,8.0,70,0.00,CLR,,0.00,WeatherDisplay:10.37,2013-11-20 23:44:00,
2013-11-21 10:49:00,74.5,63.6,29.87,East,84,6.0,12.0,69,0.00,CLR,,0.00,WeatherDisplay:10.37,2013-11-20 23:49:00,
2013-11-21 10:54:00,74.8,64.0,29.86,ENE,78,2.0,10.0,69,0.00,CLR,,0.00,WeatherDisplay:10.37,2013-11-20 23:54:00,
2013-11-21 10:59:00,75.0,64.1,29.86,East,84,6.0,8.0,69,0.00,CLR,,0.00,WeatherDisplay:10.37,2013-11-20 23:59:00,
2013-11-21 11:04:00,75.0,64.2,29.86,East,88,2.0,8.0,69,0.00,CLR,,0.00,WeatherDisplay:10.37,2013-11-21 00:04:00,
2013-11-21 11:09:00,75.4,64.1,29.86,East,89,6.0,13.0,68,0.00,CLR,,0.00,WeatherDisplay:10.37,2013-11-21 00:09:00,
2013-11-21 11:14:00,75.5,63.8,29.87,East,96,2.0,6.0,67,0.00,CLR,,0.00,WeatherDisplay:10.37,2013-11-21 00:14:00,
2013-11-21 11:19:00,75.6,64.3,29.86,ESE,105,7.0,11.0,68,0.00,CLR,,0.00,WeatherDisplay:10.37,2013-11-21 00:19:00,
2013-11-21 11:24:00,75.6,63.8,29.86,ESE,106,5.0,13.0,67,0.00,CLR,,0.00,WeatherDisplay:10.37,2013-11-21 00:24:00,
2013-11-21 11:29:00,75.8,64.1,29.86,East,81,1.0,8.0,67,0.00,CLR,,0.00,WeatherDisplay:10.37,2013-11-21 00:29:00,
2013-11-21 11:34:00,76.3,64.5,29.85,ENE,70,1.0,11.0,67,0.00,CLR,,0.00,WeatherDisplay:10.37,2013-11-21 00:34:00,
2013-11-21 11:39:00,76.2,64.9,29.85,ESE,109,7.0,15.0,68,0.00,CLR,,0.00,WeatherDisplay:10.37,2013-11-21 00:39:00,
2013-11-21 11:44:00,76.3,64.9,29.85,ESE,117,6.0,15.0,68,0.00,CLR,,0.00,WeatherDisplay:10.37,2013-11-21 00:44:00,
2013-11-21 11:49:00,76.3,64.9,29.85,ESE,122,7.0,15.0,68,0.00,CLR,,0.00,WeatherDisplay:10.37,2013-11-21 00:49:00,
2013-11-21 11:54:00,76.2,64.9,29.85,ESE,115,7.0,14.0,68,0.00,CLR,,0.00,WeatherDisplay:10.37,2013-11-21 00:54:00,
2013-11-21 11:59:00,76.3,64.9,29.85,ESE,106,6.0,13.0,68,0.00,CLR,,0.00,WeatherDisplay:10.37,2013-11-21 00:59:00,
2013-11-21 12:04:00,76.3,64.9,29.85,ESE,105,8.0,13.0,68,0.00,CLR,,0.00,WeatherDisplay:10.37,2013-11-21 01:04:00,
2013-11-21 12:09:00,76.3,64.9,29.84,ESE,103,6.0,12.0,68,0.00,CLR,,0.00,WeatherDisplay:10.37,2013-11-21 01:09:00,
2013-11-21 12:14:00,76.3,65.0,29.85,ESE,112,6.0,17.0,68,0.00,CLR,,0.00,WeatherDisplay:10.37,2013-11-21 01:14:00,
2013-11-21 12:19:00,76.6,65.3,29.84,ESE,108,6.0,10.0,68,0.00,CLR,,0.00,WeatherDisplay:10.37,2013-11-21 01:19:00,
2013-11-21 12:24:00,76.8,65.4,29.84,ESE,103,10.0,14.0,68,0.00,CLR,,0.00,WeatherDisplay:10.37,2013-11-21 01:24:00,
2013-11-21 12:29:00,76.8,65.5,29.84,ESE,119,8.0,11.0,68,0.00,CLR,,0.00,WeatherDisplay:10.37,2013-11-21 01:29:00,
2013-11-21 12:34:00,76.9,65.1,29.84,East,96,6.0,13.0,67,0.00,CLR,,0.00,WeatherDisplay:10.37,2013-11-21 01:34:00,
2013-11-21 12:39:00,77.2,65.4,29.84,ESE,103,7.0,13.0,67,0.00,CLR,,0.00,WeatherDisplay:10.37,2013-11-21 01:39:00,
2013-11-21 12:44:00,77.3,65.5,29.84,ESE,103,5.0,10.0,67,0.00,CLR,,0.00,WeatherDisplay:10.37,2013-11-21 01:44:00,
2013-11-21 12:49:00,77.3,65.0,29.84,East,87,8.0,13.0,66,0.00,CLR,,0.00,WeatherDisplay:10.37,2013-11-21 01:49:00,
2013-11-21 12:54:00,77.2,64.9,29.84,East,93,5.0,14.0,66,0.00,CLR,,0.00,WeatherDisplay:10.37,2013-11-21 01:54:00,
2013-11-21 12:59:00,77.4,65.1,29.84,East,92,6.0,14.0,66,0.00,CLR,,0.00,WeatherDisplay:10.37,2013-11-21 01:59:00,
2013-11-21 13:04:00,77.4,65.1,29.83,ESE,106,8.0,15.0,66,0.00,CLR,,0.00,WeatherDisplay:10.37,2013-11-21 02:04:00,
2013-11-21 13:09:00,77.5,65.3,29.83,ESE,108,6.0,12.0,66,0.00,CLR,,0.00,WeatherDisplay:10.37,2013-11-21 02:09:00,
2013-11-21 13:14:00,77.7,65.0,29.83,East,93,6.0,17.0,65,0.00,CLR,,0.00,WeatherDisplay:10.37,2013-11-21 02:14:00,
2013-11-21 13:19:00,77.5,64.8,29.83,East,91,7.0,12.0,65,0.00,CLR,,0.00,WeatherDisplay:10.37,2013-11-21 02:19:00,
2013-11-21 13:24:00,77.7,65.0,29.83,East,100,6.0,14.0,65,0.00,CLR,,0.00,WeatherDisplay:10.37,2013-11-21 02:24:00,
2013-11-21 13:29:00,77.7,65.0,29.82,East,89,6.0,12.0,65,0.00,CLR,,0.00,WeatherDisplay:10.37,2013-11-21 02:29:00,
2013-11-21 13:34:00,77.7,65.0,29.82,East,96,8.0,12.0,65,0.00,CLR,,0.00,WeatherDisplay:10.37,2013-11-21 02:34:00,
2013-11-21 13:39:00,77.7,65.0,29.82,ESE,114,8.0,13.0,65,0.00,CLR,,0.00,WeatherDisplay:10.37,2013-11-21 02:39:00,
2013-11-21 13:44:00,77.8,64.7,29.82,ESE,108,9.0,15.0,64,0.00,CLR,,0.00,WeatherDisplay:10.37,2013-11-21 02:44:00,
2013-11-21 13:49:00,77.9,65.2,29.82,ESE,111,9.0,17.0,65,0.00,CLR,,0.00,WeatherDisplay:10.37,2013-11-21 02:49:00,
2013-11-21 13:54:00,78.1,65.4,29.82,ESE,118,9.0,14.0,65,0.00,CLR,,0.00,WeatherDisplay:10.37,2013-11-21 02:54:00,
2013-11-21 13:59:00,78.3,65.5,29.81,ESE,122,9.0,13.0,65,0.00,CLR,,0.00,WeatherDisplay:10.37,2013-11-21 02:59:00,
2013-11-21 14:04:00,78.4,65.7,29.81,ESE,120,6.0,12.0,65,0.00,CLR,,0.00,WeatherDisplay:10.37,2013-11-21 03:04:00,
2013-11-21 14:09:00,78.6,65.9,29.81,ESE,115,8.0,12.0,65,0.00,CLR,,0.00,WeatherDisplay:10.37,2013-11-21 03:09:00,
2013-11-21 14:14:00,78.6,65.4,29.81,ESE,115,8.0,17.0,64,0.00,CLR,,0.00,WeatherDisplay:10.37,2013-11-21 03:14:00,
2013-11-21 14:19:00,78.6,65.4,29.81,ESE,110,8.0,17.0,64,0.00,CLR,,0.00,WeatherDisplay:10.37,2013-11-21 03:19:00,
2013-11-21 14:24:00,78.6,65.4,29.81,ESE,109,9.0,14.0,64,0.00,CLR,,0.00,WeatherDisplay:10.37,2013-11-21 03:24:00,
2013-11-21 14:29:00,78.4,65.2,29.81,ESE,108,10.0,15.0,64,0.00,CLR,,0.00,WeatherDisplay:10.37,2013-11-21 03:29:00,
2013-11-21 14:34:00,78.6,65.4,29.81,ESE,111,8.0,13.0,64,0.00,CLR,,0.00,WeatherDisplay:10.37,2013-11-21 03:34:00,
2013-11-21 14:39:00,78.4,65.2,29.81,ESE,107,8.0,15.0,64,0.00,CLR,,0.00,WeatherDisplay:10.37,2013-11-21 03:39:00,
2013-11-21 14:44:00,78.4,65.2,29.81,ESE,108,9.0,15.0,64,0.00,CLR,,0.00,WeatherDisplay:10.37,2013-11-21 03:44:00,
2013-11-21 14:49:00,78.4,65.2,29.80,ESE,112,7.0,15.0,64,0.00,CLR,,0.00,WeatherDisplay:10.37,2013-11-21 03:49:00,
2013-11-21 14:54:00,78.6,65.4,29.81,East,100,8.0,13.0,64,0.00,CLR,,0.00,WeatherDisplay:10.37,2013-11-21 03:54:00,
2013-11-21 14:59:00,78.6,65.0,29.81,East,94,7.0,13.0,63,0.00,CLR,,0.00,WeatherDisplay:10.37,2013-11-21 03:59:00,
2013-11-21 15:04:00,78.6,65.4,29.81,ESE,102,7.0,11.0,64,0.00,CLR,,0.00,WeatherDisplay:10.37,2013-11-21 04:04:00,
2013-11-21 15:09:00,78.8,65.6,29.81,ESE,105,8.0,16.0,64,0.00,CLR,,0.00,WeatherDisplay:10.37,2013-11-21 04:09:00,
2013-11-21 15:14:00,79.1,65.9,29.81,East,99,5.0,10.0,64,0.00,CLR,,0.00,WeatherDisplay:10.37,2013-11-21 04:14:00,
2013-11-21 15:19:00,79.3,65.6,29.81,ESE,106,7.0,15.0,63,0.00,CLR,,0.00,WeatherDisplay:10.37,2013-11-21 04:19:00,
2013-11-21 15:24:00,79.3,65.6,29.81,ESE,110,5.0,11.0,63,0.00,CLR,,0.00,WeatherDisplay:10.37,2013-11-21 04:24:00,
2013-11-21 15:29:00,79.5,65.8,29.81,ESE,112,10.0,14.0,63,0.00,CLR,,0.00,WeatherDisplay:10.37,2013-11-21 04:29:00,
2013-11-21 15:34:00,79.5,65.3,29.81,ESE,110,8.0,15.0,62,0.00,CLR,,0.00,WeatherDisplay:10.37,2013-11-21 04:34:00,
2013-11-21 15:39:00,79.3,65.2,29.81,ESE,110,7.0,15.0,62,0.00,CLR,,0.00,WeatherDisplay:10.37,2013-11-21 04:39:00,
2013-11-21 15:44:00,78.9,64.8,29.81,ESE,103,10.0,15.0,62,0.00,CLR,,0.00,WeatherDisplay:10.37,2013-11-21 04:44:00,
2013-11-21 15:49:00,78.6,65.0,29.81,East,96,6.0,14.0,63,0.00,CLR,,0.00,WeatherDisplay:10.37,2013-11-21 04:49:00,
2013-11-21 15:54:00,78.6,64.9,29.81,East,98,8.0,20.0,63,0.00,CLR,,0.00,WeatherDisplay:10.37,2013-11-21 04:54:00,
2013-11-21 15:59:00,78.4,64.8,29.81,East,101,9.0,16.0,63,0.00,CLR,,0.00,WeatherDisplay:10.37,2013-11-21 04:59:00,
2013-11-21 16:04:00,78.6,65.4,29.81,East,101,7.0,10.0,64,0.00,CLR,,0.00,WeatherDisplay:10.37,2013-11-21 05:04:00,
2013-11-21 16:09:00,78.7,65.5,29.81,ESE,103,6.0,14.0,64,0.00,CLR,,0.00,WeatherDisplay:10.37,2013-11-21 05:09:00,
2013-11-21 16:14:00,79.0,65.3,29.80,East,99,8.0,12.0,63,0.00,CLR,,0.00,WeatherDisplay:10.37,2013-11-21 05:14:00,
2013-11-21 16:19:00,79.0,65.3,29.79,East,97,6.0,17.0,63,0.00,CLR,,0.00,WeatherDisplay:10.37,2013-11-21 05:19:00,
2013-11-21 16:24:00,78.8,64.7,29.79,ESE,108,8.0,12.0,62,0.00,CLR,,0.00,WeatherDisplay:10.37,2013-11-21 05:24:00,
2013-11-21 16:29:00,78.6,65.0,29.78,East,98,7.0,12.0,63,0.00,CLR,,0.00,WeatherDisplay:10.37,2013-11-21 05:29:00,
2013-11-21 16:34:00,78.7,64.6,29.78,East,86,3.0,11.0,62,0.00,CLR,,0.00,WeatherDisplay:10.37,2013-11-21 05:34:00,
2013-11-21 16:39:00,78.6,64.5,29.78,East,89,7.0,13.0,62,0.00,CLR,,0.00,WeatherDisplay:10.37,2013-11-21 05:39:00,
2013-11-21 16:44:00,78.6,65.0,29.78,East,86,7.0,12.0,63,0.00,CLR,,0.00,WeatherDisplay:10.37,2013-11-21 05:44:00,
2013-11-21 16:49:00,78.6,64.5,29.78,ENE,77,8.0,13.0,62,0.00,CLR,,0.00,WeatherDisplay:10.37,2013-11-21 05:49:00,
2013-11-21 16:54:00,78.4,64.3,29.78,ENE,72,8.0,14.0,62,0.00,CLR,,0.00,WeatherDisplay:10.37,2013-11-21 05:54:00,
2013-11-21 16:59:00,78.3,64.2,29.77,ENE,70,6.0,16.0,62,0.00,CLR,,0.00,WeatherDisplay:10.37,2013-11-21 05:59:00,
2013-11-21 17:04:00,78.1,64.5,29.77,ENE,74,7.0,13.0,63,0.00,CLR,,0.00,WeatherDisplay:10.37,2013-11-21 06:04:00,
2013-11-21 17:09:00,78.0,64.4,29.77,East,97,5.0,13.0,63,0.00,CLR,,0.00,WeatherDisplay:10.37,2013-11-21 06:09:00,
2013-11-21 17:14:00,78.1,64.5,29.77,East,94,9.0,15.0,63,0.00,CLR,,0.00,WeatherDisplay:10.37,2013-11-21 06:14:00,
2013-11-21 17:19:00,77.8,64.2,29.77,East,79,8.0,14.0,63,0.00,CLR,,0.00,WeatherDisplay:10.37,2013-11-21 06:19:00,
2013-11-21 17:24:00,77.5,63.9,29.77,East,79,5.0,13.0,63,0.00,CLR,,0.00,WeatherDisplay:10.37,2013-11-21 06:24:00,
2013-11-21 17:29:00,77.5,64.4,29.77,East,84,7.0,14.0,64,0.00,CLR,,0.00,WeatherDisplay:10.37,2013-11-21 06:29:00,
2013-11-21 17:34:00,77.5,64.4,29.77,East,88,7.0,12.0,64,0.00,CLR,,0.00,WeatherDisplay:10.37,2013-11-21 06:34:00,
2013-11-21 17:39:00,77.7,64.5,29.77,ENE,77,10.0,15.0,64,0.00,CLR,,0.00,WeatherDisplay:10.37,2013-11-21 06:39:00,
2013-11-21 17:44:00,77.6,64.9,29.77,East,79,6.0,13.0,65,0.00,CLR,,0.00,WeatherDisplay:10.37,2013-11-21 06:44:00,
2013-11-21 17:49:00,77.9,65.2,29.77,East,88,3.0,12.0,65,0.00,CLR,,0.00,WeatherDisplay:10.37,2013-11-21 06:49:00,
2013-11-21 17:54:00,78.1,64.9,29.77,East,97,5.0,11.0,64,0.00,CLR,,0.00,WeatherDisplay:10.37,2013-11-21 06:54:00,
2013-11-21 17:59:00,78.1,64.9,29.77,East,87,3.0,14.0,64,0.00,CLR,,0.00,WeatherDisplay:10.37,2013-11-21 06:59:00,
2013-11-21 18:04:00,78.0,64.9,29.77,East,79,2.0,9.0,64,0.00,CLR,,0.00,WeatherDisplay:10.37,2013-11-21 07:04:00,
2013-11-21 18:09:00,77.7,64.1,29.77,ENE,72,5.0,13.0,63,0.00,CLR,,0.00,WeatherDisplay:10.37,2013-11-21 07:09:00,
2013-11-21 18:14:00,77.5,63.5,29.76,ENE,64,6.0,13.0,62,0.00,CLR,,0.00,WeatherDisplay:10.37,2013-11-21 07:14:00,
2013-11-21 18:19:00,77.3,63.3,29.76,ENE,75,8.0,13.0,62,0.00,CLR,,0.00,WeatherDisplay:10.37,2013-11-21 07:19:00,
2013-11-21 18:24:00,76.8,62.8,29.76,ENE,76,6.0,16.0,62,0.00,CLR,,0.00,WeatherDisplay:10.37,2013-11-21 07:24:00,
2013-11-21 18:29:00,76.6,63.1,29.77,ENE,78,6.0,12.0,63,0.00,CLR,,0.00,WeatherDisplay:10.37,2013-11-21 07:29:00,
2013-11-21 18:34:00,76.3,63.2,29.77,ENE,77,6.0,10.0,64,0.00,CLR,,0.00,WeatherDisplay:10.37,2013-11-21 07:34:00,
2013-11-21 18:39:00,76.1,63.0,29.76,East,85,5.0,14.0,64,0.00,CLR,,0.00,WeatherDisplay:10.37,2013-11-21 07:39:00,
2013-11-21 18:44:00,75.7,63.1,29.77,ENE,74,5.0,12.0,65,0.00,CLR,,0.00,WeatherDisplay:10.37,2013-11-21 07:44:00,
2013-11-21 18:49:00,75.5,63.3,29.77,East,85,5.0,13.0,66,0.00,CLR,,0.00,WeatherDisplay:10.37,2013-11-21 07:49:00,
2013-11-21 18:55:00,75.3,63.6,29.77,East,79,6.0,10.0,67,0.00,CLR,,0.00,WeatherDisplay:10.37,2013-11-21 07:55:00,
2013-11-21 19:00:00,75.0,63.3,29.77,East,83,5.0,15.0,67,0.00,CLR,,0.00,WeatherDisplay:10.37,2013-11-21 08:00:00,
2013-11-21 19:05:00,74.9,63.2,29.77,East,94,6.0,11.0,67,0.00,CLR,,0.00,WeatherDisplay:10.37,2013-11-21 08:05:00,
2013-11-21 19:10:00,74.8,63.1,29.78,East,85,6.0,10.0,67,0.00,CLR,,0.00,WeatherDisplay:10.37,2013-11-21 08:10:00,
2013-11-21 19:15:00,74.6,62.9,29.78,East,81,7.0,18.0,67,0.00,CLR,,0.00,WeatherDisplay:10.37,2013-11-21 08:15:00,
2013-11-21 19:20:00,74.5,63.2,29.78,East,86,5.0,14.0,68,0.00,CLR,,0.00,WeatherDisplay:10.37,2013-11-21 08:20:00,
2013-11-21 19:25:00,74.5,63.2,29.78,East,81,3.0,9.0,68,0.00,CLR,,0.00,WeatherDisplay:10.37,2013-11-21 08:25:00,
2013-11-21 19:30:00,74.3,63.1,29.79,NE,54,1.0,7.0,68,0.00,CLR,,0.00,WeatherDisplay:10.37,2013-11-21 08:30:00,
2013-11-21 19:35:00,74.1,63.3,29.80,NE,42,1.0,8.0,69,0.00,CLR,,0.00,WeatherDisplay:10.37,2013-11-21 08:35:00,
2013-11-21 19:40:00,74.1,63.3,29.79,NE,46,1.0,6.0,69,0.00,CLR,,0.00,WeatherDisplay:10.37,2013-11-21 08:40:00,
2013-11-21 19:45:00,74.2,63.4,29.80,ENE,76,3.0,7.0,69,0.00,CLR,,0.00,WeatherDisplay:10.37,2013-11-21 08:45:00,
2013-11-21 19:50:00,74.1,63.3,29.81,East,96,2.0,6.0,69,0.00,CLR,,0.00,WeatherDisplay:10.37,2013-11-21 08:50:00,
2013-11-21 19:55:00,74.1,63.3,29.81,East,83,3.0,8.0,69,0.00,CLR,,0.00,WeatherDisplay:10.37,2013-11-21 08:55:00,
2013-11-21 20:00:00,73.9,63.1,29.81,East,82,3.0,8.0,69,0.00,CLR,,0.00,WeatherDisplay:10.37,2013-11-21 09:00:00,
2013-11-21 20:05:00,73.9,62.7,29.81,ENE,72,1.0,8.0,68,0.00,CLR,,0.00,WeatherDisplay:10.37,2013-11-21 09:05:00,
2013-11-21 20:10:00,73.9,62.7,29.81,ENE,69,3.0,9.0,68,0.00,CLR,,0.00,WeatherDisplay:10.37,2013-11-21 09:10:00,
2013-11-21 20:15:00,73.8,62.5,29.81,East,86,6.0,9.0,68,0.00,CLR,,0.00,WeatherDisplay:10.37,2013-11-21 09:15:00,
2013-11-21 20:20:00,73.8,62.5,29.81,East,87,5.0,9.0,68,0.00,CLR,,0.00,WeatherDisplay:10.37,2013-11-21 09:20:00,
2013-11-21 20:25:00,73.6,62.8,29.81,East,95,2.0,6.0,69,0.00,CLR,,0.00,WeatherDisplay:10.37,2013-11-21 09:25:00,
2013-11-21 20:30:00,73.6,62.8,29.82,East,90,2.0,5.0,69,0.00,CLR,,0.00,WeatherDisplay:10.37,2013-11-21 09:30:00,
2013-11-21 20:35:00,73.6,62.8,29.82,ENE,76,1.0,8.0,69,0.00,CLR,,0.00,WeatherDisplay:10.37,2013-11-21 09:35:00,
2013-11-21 20:40:00,73.6,62.8,29.83,ENE,75,3.0,6.0,69,0.00,CLR,,0.00,WeatherDisplay:10.37,2013-11-21 09:40:00,
2013-11-21 20:45:00,73.6,62.8,29.83,ENE,78,1.0,7.0,69,0.00,CLR,,0.00,WeatherDisplay:10.37,2013-11-21 09:45:00,
2013-11-21 20:50:00,73.4,62.6,29.83,ENE,72,3.0,13.0,69,0.00,CLR,,0.00,WeatherDisplay:10.37,2013-11-21 09:50:00,
2013-11-21 20:55:00,73.2,62.8,29.84,East,81,3.0,5.0,70,0.00,CLR,,0.00,WeatherDisplay:10.37,2013-11-21 09:55:00,
2013-11-21 21:00:00,73.2,62.8,29.84,ESE,104,3.0,6.0,70,0.00,CLR,,0.00,WeatherDisplay:10.37,2013-11-21 10:00:00,
2013-11-21 21:05:00,73.2,62.8,29.85,ESE,117,3.0,8.0,70,0.00,CLR,,0.00,WeatherDisplay:10.37,2013-11-21 10:05:00,
2013-11-21 21:10:00,73.2,62.8,29.85,ESE,115,1.0,3.0,70,0.00,CLR,,0.00,WeatherDisplay:10.37,2013-11-21 10:10:00,
2013-11-21 21:15:00,73.2,62.8,29.86,ESE,123,2.0,5.0,70,0.00,CLR,,0.00,WeatherDisplay:10.37,2013-11-21 10:15:00,
2013-11-21 21:20:00,73.2,62.8,29.87,SE,142,5.0,6.0,70,0.00,CLR,,0.00,WeatherDisplay:10.37,2013-11-21 10:20:00,
2013-11-21 21:25:00,73.2,62.8,29.88,SSE,155,1.0,5.0,70,0.00,CLR,,0.00,WeatherDisplay:10.37,2013-11-21 10:25:00,
2013-11-21 21:30:00,73.0,63.1,29.88,SSE,168,0.0,2.0,71,0.00,CLR,,0.00,WeatherDisplay:10.37,2013-11-21 10:30:00,
2013-11-21 21:35:00,73.0,63.1,29.88,SSE,151,3.0,5.0,71,0.00,CLR,,0.00,WeatherDisplay:10.37,2013-11-21 10:35:00,
2013-11-21 21:40:00,73.0,63.1,29.89,SE,128,2.0,3.0,71,0.00,CLR,,0.00,WeatherDisplay:10.37,2013-11-21 10:40:00,
2013-11-21 21:45:00,73.0,63.1,29.88,ESE,122,2.0,4.0,71,0.00,CLR,,0.00,WeatherDisplay:10.37,2013-11-21 10:45:00,
2013-11-21 21:50:00,73.0,63.1,29.88,SE,136,2.0,8.0,71,0.00,CLR,,0.00,WeatherDisplay:10.37,2013-11-21 10:50:00,
2013-11-21 21:55:00,72.7,62.7,29.88,SSE,166,3.0,6.0,71,0.00,CLR,,0.00,WeatherDisplay:10.37,2013-11-21 10:55:00,
2013-11-21 22:00:00,72.7,63.1,29.88,South,179,3.0,5.0,72,0.00,CLR,,0.00,WeatherDisplay:10.37,2013-11-21 11:00:00,
2013-11-21 22:05:00,72.5,63.0,29.88,South,170,2.0,6.0,72,0.00,CLR,,0.00,WeatherDisplay:10.37,2013-11-21 11:05:00,
2013-11-21 22:10:00,72.4,63.3,29.88,SSE,162,0.0,2.0,73,0.00,CLR,,0.00,WeatherDisplay:10.37,2013-11-21 11:10:00,
2013-11-21 22:15:00,72.5,63.3,29.88,SSE,150,0.0,2.0,73,0.00,CLR,,0.00,WeatherDisplay:10.37,2013-11-21 11:15:00,
2013-11-21 22:20:00,72.3,63.2,29.88,ESE,118,1.0,2.0,73,0.00,CLR,,0.00,WeatherDisplay:10.37,2013-11-21 11:20:00,
2013-11-21 22:25:00,72.4,63.3,29.88,ESE,104,1.0,2.0,73,0.00,CLR,,0.00,WeatherDisplay:10.37,2013-11-21 11:25:00,
2013-11-21 22:30:00,72.5,63.4,29.87,East,93,1.0,5.0,73,0.00,CLR,,0.00,WeatherDisplay:10.37,2013-11-21 11:30:00,
2013-11-21 22:35:00,72.5,63.4,29.87,East,98,1.0,3.0,73,0.00,CLR,,0.00,WeatherDisplay:10.37,2013-11-21 11:35:00,
2013-11-21 22:40:00,72.5,63.4,29.87,East,95,1.0,4.0,73,0.00,CLR,,0.00,WeatherDisplay:10.37,2013-11-21 11:40:00,
2013-11-21 22:45:00,72.3,63.2,29.88,ENE,77,1.0,5.0,73,0.00,CLR,,0.00,WeatherDisplay:10.37,2013-11-21 11:45:00,
2013-11-21 22:50:00,72.1,63.0,29.87,ENE,61,0.0,2.0,73,0.00,CLR,,0.00,WeatherDisplay:10.37,2013-11-21 11:50:00,
2013-11-21 22:55:00,72.0,63.2,29.86,ENE,64,2.0,12.0,74,0.00,CLR,,0.00,WeatherDisplay:10.37,2013-11-21 11:55:00,
2013-11-21 23:00:00,71.8,63.0,29.85,ENE,59,2.0,8.0,74,0.00,CLR,,0.00,WeatherDisplay:10.37,2013-11-21 12:00:00,
2013-11-21 23:05:00,71.6,62.9,29.85,ENE,64,3.0,6.0,74,0.00,CLR,,0.00,WeatherDisplay:10.37,2013-11-21 12:05:00,
2013-11-21 23:10:00,71.4,62.7,29.85,East,90,1.0,5.0,74,0.00,CLR,,0.00,WeatherDisplay:10.37,2013-11-21 12:10:00,
2013-11-21 23:15:00,71.4,63.1,29.84,East,95,2.0,9.0,75,0.00,CLR,,0.00,WeatherDisplay:10.37,2013-11-21 12:15:00,
2013-11-21 23:20:00,71.4,63.1,29.84,East,88,1.0,6.0,75,0.00,CLR,,0.00,WeatherDisplay:10.37,2013-11-21 12:20:00,
2013-11-21 23:25:00,71.4,63.1,29.83,ENE,71,6.0,10.0,75,0.00,CLR,,0.00,WeatherDisplay:10.37,2013-11-21 12:25:00,
2013-11-21 23:30:00,71.2,62.9,29.83,ENE,62,2.0,6.0,75,0.00,CLR,,0.00,WeatherDisplay:10.37,2013-11-21 12:30:00,
2013-11-21 23:35:00,71.1,62.7,29.82,ENE,57,5.0,9.0,75,0.00,CLR,,0.00,WeatherDisplay:10.37,2013-11-21 12:35:00,
2013-11-21 23:40:00,70.9,62.6,29.82,ENE,62,5.0,8.0,75,0.00,CLR,,0.00,WeatherDisplay:10.37,2013-11-21 12:40:00,
2013-11-21 23:45:00,70.9,62.9,29.82,NE,52,2.0,12.0,76,0.00,CLR,,0.00,WeatherDisplay:10.37,2013-11-21 12:45:00,
2013-11-21 23:50:00,70.7,62.8,29.81,ENE,76,5.0,12.0,76,0.00,CLR,,0.00,WeatherDisplay:10.37,2013-11-21 12:50:00,
2013-11-21 23:55:00,70.5,62.6,29.80,ENE,69,5.0,10.0,76,0.00,CLR,,0.00,WeatherDisplay:10.37,2013-11-21 12:55:00,